Temp
10 10 10 9 9 9 9 9 9 9 9 9 9 9 10 12 15 17 19 20 20 20 21 21 22 22 24 24 27 33 33 33 33 32 32 32 32 33 34 37 37 32 35 38 39 39 38
10 10 10 9 10 10 9 9 9 9 9 9 9 9 11 15 17 18 19 20 20 21 22 22 22 21 20 26 34 34 34 33 33 32 33 33 33 35 35 37 38 39 38 38 38 39 39
10 10 10 9 9 9 9 9 9 9 9 9 10 10 12 14 17 18 19 20 21 22 22 22 22 20 23 25 34 34 35 34 35 35 33 36 36 34 35 36 38 39 37 37 38 39 39
9 10 9 9 9 9 9 9 9 9 9 9 10 10 12 15 17 18 20 21 22 22 23 22 21 19 21 32 33 34 34 35 36 36 37 37 37 35 36 36 37 36 37 34 36 37 38
9 9 9 9 9 9 9 9 9 9 9 9 9 10 13 15 17 19 20 21 22 22 23 22 21 20 25 33 33 34 35 35 36 37 37 38 37 35 34 33 32 34 32 35 36 37 37
9 9 9 9 9 9 9 9 9 9 9 9 9 11 13 16 18 19 21 22 22 22 22 20 22 23 26 32 35 35 35 35 34 34 35 35 34 31 31 32 29 32 35 35 35 36 36
9 9 9 9 9 9 9 9 9 9 9 9 10 12 15 17 18 18 20 22 21 21 24 25 27 28 33 33 35 35 36 35 34 33 32 33 31 30 32 34 35 36 36 35 36 36 37
9 9 9 9 9 9 9 9 9 9 9 9 10 14 17 19 19 19 17 18 27 28 25 28 27 29 32 34 34 35 36 33 33 30 32 32 30 33 35 36 36 36 36 36 37 38 36
9 9 9 9 9 9 9 9 9 9 9 9 12 16 18 20 21 21 20 25 28 28 25 29 31 31 31 34 33 32 33 32 32 31 31 30 32 36 35 35 35 35 34 36 37 38 38
9 9 9 9 8 9 8 9 9 9 9 10 13 16 18 21 21 21 25 27 28 29 24 29 31 32 33 34 32 35 35 33 33 31 32 31 34 36 35 35 34 32 37 38 38 35 33
9 8 8 8 8 8 8 8 8 9 10 12 14 16 18 15 16 18 26 28 28 28 24 34 33 36 34 32 33 33 36 34 32 32 33 31 33 34 34 35 36 34 36 36 37 35 34
8 8 8 8 8 8 8 8 9 9 11 13 14 16 18 16 15 25 26 27 28 24 27 34 33 33 33 33 33 35 34 34 34 32 32 32 35 34 34 36 36 38 35 34 34 34 30
8 8 8 8 8 8 9 8 9 10 12 14 16 16 16 15 21 25 26 26 24 25 34 34 32 33 31 32 32 33 32 32 30 30 29 32 33 34 35 33 36 35 34 28 29 29 29
8 8 8 8 8 9 9 9 10 11 13 16 19 19 20 21 23 23 24 24 25 31 33 35 35 33 31 32 32 33 32 30 31 31 30 29 29 33 35 34 33 33 31 27 29 29 31
8 8 8 8 8 9 9 9 10 12 15 16 20 20 19 24 24 24 23 23 28 31 33 33 34 34 33 34 34 33 31 31 32 31 29 30 31 35 36 36 34 32 31 31 31 32 30
8 8 8 8 8 8 8 9 10 13 16 17 18 20 24 25 24 25 23 24 27 31 33 32 30 32 31 32 33 32 31 34 34 34 32 31 30 33 36 36 35 32 33 30 28 30 29
8 8 8 8 9 8 8 9 11 14 18 20 17 23 28 27 26 24 23 27 30 34 33 32 30 30 30 31 32 32 33 35 35 35 33 32 31 32 33 34 32 33 31 32 30 29 28
8 8 8 8 8 9 9 10 11 13 18 19 22 24 28 27 24 25 25 29 29 32 33 31 31 30 30 31 31 31 33 34 36 37 34 34 31 29 31 34 35 34 32 31 27 28 28
8 8 8 8 8 9 9 10 11 12 12 11 21 26 28 28 24 26 28 31 32 32 32 31 31 32 31 30 29 31 32 35 35 36 34 32 28 27 30 31 33 33 33 32 31 30 30
8 8 8 8 8 9 10 11 12 13 13 12 19 25 27 26 27 27 27 29 30 33 32 32 30 30 30 29 30 30 31 34 32 29 27 31 30 29 27 29 31 32 33 34 31 29 29
10 9 8 8 8 9 10 12 14 15 16 14 22 25 26 26 27 28 29 29 30 30 31 31 31 31 30 28 28 29 31 32 31 29 30 28 28 29 30 32 33 33 34 34 32 32 31
10 10 9 8 8 9 10 12 15 17 18 16 21 22 24 24 27 28 28 28 30 30 30 30 30 32 31 28 28 28 30 30 26 28 27 26 26 24 26 30 32 32 34 34 34 34 33
10 10 10 9 8 9 10 12 14 17 19 18 22 22 21 23 26 27 28 29 31 30 30 31 31 29 29 31 31 30 29 29 28 29 26 24 23 23 23 26 26 28 31 33 33 34 34
11 11 10 11 10 10 11 13 14 14 13 12 18 19 20 22 24 26 27 29 29 29 28 30 29 27 29 30 30 29 29 29 28 27 25 22 21 21 23 25 25 29 31 30 32 34 34
12 11 11 12 11 13 13 13 14 14 14 13 16 18 19 20 23 24 26 26 26 26 27 28 30 29 29 29 27 26 26 27 28 27 25 24 21 22 23 23 26 29 31 31 29 29 31
12 13 13 13 13 13 13 13 14 14 14 15 16 18 18 19 22 23 23 25 24 25 26 28 29 30 29 26 26 24 24 26 27 28 26 23 20 22 23 22 23 27 31 29 29 27 31
12 12 12 12 13 13 13 13 13 13 13 13 16 17 18 17 21 22 21 22 23 23 23 25 26 26 29 25 25 24 25 27 24 23 24 23 23 22 22 22 25 24 23 28 26 26 24
12 12 12 12 12 12 12 12 10 10 11 12 15 17 17 17 18 20 23 20 21 22 22 23 23 25 25 25 25 25 25 22 23 22 23 23 23 23 23 23 23 22 24 23 22 23 23
12 11 11 12 12 12 11 10 8 8 8 9 11 15 14 16 17 18 18 19 19 20 21 22 22 22 24 23 23 24 24 21 22 22 22 20 22 20 20 20 22 20 21 21 22 21 21
Height
822 819 817 815 812 810 807 805 802 799 795 792 788 784 781 779 776 774 771 768 766 765 762 761 759 758 755 755 743 730 730 731 733 735 737 737 738 737 743 726 723 747 735 717 711 713 716
822 820 817 814 812 809 807 804 802 799 796 793 789 784 780 777 774 772 770 767 765 763 761 760 758 758 757 761 728 728 729 730 732 733 734 735 732 726 731 725 726 716 718 718 712 715 712
822 820 817 814 812 809 806 803 800 797 794 790 787 784 781 777 774 770 767 765 763 761 760 759 758 757 756 743 726 729 728 729 729 730 731 730 726 730 724 731 708 713 732 723 719 713 717
821 819 816 814 812 809 806 803 800 796 793 790 786 783 780 776 772 769 765 762 759 758 758 757 757 758 755 726 726 726 727 727 726 726 726 725 724 725 723 718 721 731 729 756 724 717 714
821 818 816 814 811 808 805 802 799 796 793 790 786 783 779 775 772 768 765 762 759 757 757 757 758 758 748 724 723 723 724 725 724 723 723 723 722 731 731 747 758 741 768 753 739 715 720
820 818 816 813 810 807 804 801 798 796 792 789 785 781 777 773 770 766 761 759 757 757 757 758 758 762 735 723 717 718 721 723 723 721 725 728 734 752 751 759 793 770 752 746 748 727 724
820 817 815 812 809 806 803 800 798 794 790 787 783 779 775 771 769 765 758 756 758 760 756 748 741 734 721 715 714 715 717 721 722 726 749 735 760 774 757 742 735 737 741 746 732 716 725
819 817 814 812 809 805 802 798 795 792 788 785 780 776 773 769 766 763 761 761 751 752 754 734 732 728 721 717 721 715 715 728 733 753 739 751 767 744 732 729 733 734 741 741 723 709 719
819 816 813 810 807 804 801 797 794 790 787 783 778 775 770 766 762 761 759 754 751 749 755 727 717 720 720 715 724 722 716 723 736 750 747 761 746 725 731 734 738 737 746 737 732 712 708
819 816 813 810 806 803 800 797 793 789 785 781 777 773 769 763 763 760 755 751 751 749 773 735 719 714 714 713 726 705 708 720 731 748 743 746 726 728 733 739 733 758 719 717 720 735 764
818 815 812 809 806 802 799 795 791 787 783 779 775 771 768 766 764 761 756 752 751 750 799 711 712 696 702 720 709 709 702 712 736 738 739 748 737 736 739 732 718 740 714 722 721 735 741
818 815 812 808 805 801 797 794 790 785 781 777 773 770 767 766 764 757 755 753 751 781 785 721 709 716 718 716 715 707 709 705 711 732 730 732 711 718 723 710 710 705 722 728 726 737 779
818 815 812 807 803 800 796 792 787 782 778 774 770 767 765 765 760 757 754 753 782 788 710 721 725 714 724 728 726 719 726 732 748 764 764 738 729 713 707 729 710 718 740 795 795 792 790
817 814 810 806 802 798 794 789 785 780 775 769 765 763 761 758 758 758 757 767 788 738 728 700 700 709 729 721 723 720 728 743 728 737 754 767 771 725 705 721 733 731 746 793 806 800 774
816 813 808 805 801 797 793 788 783 777 772 766 761 759 758 753 755 758 763 784 760 735 720 721 709 718 723 712 715 721 727 733 723 723 757 756 750 702 697 695 709 732 753 732 761 749 772
816 813 808 804 801 797 793 788 782 776 771 765 762 760 751 751 753 757 770 773 751 724 716 722 743 725 740 727 722 721 726 707 712 704 706 729 757 711 697 690 697 718 714 762 763 788 795
816 812 807 804 801 797 793 788 782 774 768 763 762 759 745 749 753 759 776 758 736 714 713 730 739 740 734 733 721 720 714 699 693 696 695 711 732 726 707 714 725 725 739 734 746 759 790
816 812 808 804 801 797 793 788 782 775 768 765 762 762 744 748 764 756 760 742 724 718 715 724 724 732 734 727 729 724 717 701 680 682 705 696 720 746 729 694 688 701 719 728 772 771 758
816 811 807 804 801 797 793 788 783 778 774 773 765 750 744 745 768 757 740 730 720 720 722 725 726 720 719 729 743 721 711 687 682 688 698 702 733 761 743 721 700 710 704 710 718 731 752
816 812 808 804 801 796 792 788 784 781 778 776 769 758 745 744 742 749 750 742 733 710 715 717 724 720 726 730 721 728 718 697 696 703 698 692 718 741 766 742 719 724 708 700 716 747 748
817 813 810 806 802 798 793 788 784 780 776 775 763 755 753 754 747 742 736 737 735 733 717 715 723 723 730 743 735 732 716 707 703 706 704 712 734 729 722 712 708 708 705 700 713 713 733
820 816 812 808 804 799 794 789 784 779 774 774 770 769 759 758 745 742 737 740 735 727 725 727 727 717 717 732 732 735 721 719 730 714 720 722 742 745 741 714 709 714 697 693 692 696 698
822 817 813 809 804 800 795 791 786 781 776 775 773 771 768 759 751 749 740 734 724 720 718 715 717 722 723 715 708 708 708 708 711 717 730 739 748 761 764 733 734 735 707 697 693 683 690
822 818 814 810 805 801 797 794 791 787 786 787 782 778 774 768 757 750 741 731 727 726 730 720 718 726 716 704 703 703 705 708 712 718 720 742 753 759 760 744 763 715 690 690 691 680 674
822 819 815 811 807 803 799 796 794 791 789 786 784 783 778 776 759 751 743 739 733 727 727 721 713 709 703 709 727 733 732 726 717 711 719 722 746 756 763 761 734 713 699 699 707 698 677
822 819 816 812 809 805 801 798 795 793 789 785 783 783 781 778 756 751 750 740 743 738 729 719 706 698 698 718 731 750 755 738 733 718 712 728 737 749 753 766 761 721 691 686 691 719 672
822 819 816 813 809 806 803 799 796 794 791 788 783 783 781 779 753 751 756 752 742 741 742 729 719 714 701 724 738 745 742 721 745 750 743 746 742 753 751 758 733 715 709 683 724 725 697
822 819 815 812 809 805 802 798 795 793 791 789 783 781 782 776 758 748 743 748 743 739 743 731 732 720 718 728 729 730 729 740 740 738 741 741 745 748 743 746 746 714 707 730 723 699 697
821 818 814 811 807 804 800 797 794 792 790 789 786 780 779 776 756 746 738 735 736 731 736 732 732 729 719 729 728 722 728 735 738 749 729 752 735 741 744 735 704 707 712 710 700 704 695
Wind_Speed
15 17 17 14 14 15 16 16 16 16 17 18 19 20 20 19 19 18 17 17 18 18 17 17 16 15 5 3 9 7 5 10 10 9 8 9 12 14 11 13 7 16 8 12 5 5 7
15 15 14 14 14 16 15 16 17 16 17 16 18 19 20 20 20 18 17 18 19 18 15 15 14 11 2 4 3 5 5 8 10 13 11 14 9 14 14 17 2 2 4 6 6 5 5
14 13 14 13 14 16 17 17 18 17 18 18 19 19 20 20 19 19 20 19 18 16 15 12 8 5 5 14 6 3 4 12 13 18 9 19 25 11 12 11 11 8 5 8 5 2 2
13 13 14 14 14 17 16 17 18 19 18 18 19 20 20 20 19 19 20 20 19 15 11 7 4 1 7 16 15 20 14 15 17 20 23 19 23 8 5 10 16 12 5 4 7 4 6
13 14 15 15 16 16 17 17 19 19 19 19 20 21 20 19 18 19 20 18 14 11 7 4 3 4 9 6 10 15 13 12 16 15 15 15 9 5 10 8 8 7 5 6 1 6 6
13 14 14 15 16 17 18 18 19 20 21 20 21 22 21 19 19 20 21 14 10 8 4 4 9 5 8 7 13 19 19 15 9 9 8 7 2 5 6 6 6 7 3 4 4 6 10
13 13 14 15 16 17 18 19 20 21 21 21 22 22 19 19 17 21 21 4 0 0 6 9 7 6 11 13 17 11 19 17 10 7 6 8 4 7 12 14 17 16 9 6 7 12 13
13 14 15 15 16 17 19 20 22 21 21 22 23 21 19 17 17 16 8 4 7 7 8 15 19 20 25 17 2 6 5 7 7 8 8 6 8 11 14 17 17 16 14 11 6 8 7
14 15 15 17 18 19 19 20 21 21 21 23 22 20 19 18 16 7 8 11 10 12 4 10 17 16 12 9 7 11 11 8 9 9 11 9 11 14 17 16 15 14 8 11 5 4 3
14 15 15 16 17 18 19 20 20 21 22 23 21 19 20 20 6 11 5 4 8 13 4 7 10 9 16 6 8 19 15 11 8 11 11 9 11 15 13 12 9 8 15 17 8 6 3
16 16 16 16 17 19 20 19 21 23 23 22 20 20 18 13 12 7 12 11 11 6 4 9 7 6 8 10 4 7 20 9 11 11 7 12 11 13 12 11 6 9 10 11 11 6 4
16 16 16 17 18 20 20 21 22 24 23 22 20 22 16 5 8 8 10 12 12 1 6 7 7 7 5 7 12 5 9 7 10 10 11 11 11 8 10 15 10 6 9 11 7 1 3
16 17 17 18 19 20 22 22 25 25 24 23 22 21 14 8 5 11 10 6 2 4 3 7 6 9 10 9 10 7 10 7 6 5 9 10 13 10 9 10 8 5 2 5 5 4 7
16 16 18 19 20 22 23 24 26 26 25 26 21 15 9 15 4 8 11 2 5 8 7 12 5 12 10 11 12 13 6 8 9 10 6 8 8 13 14 9 8 6 7 6 8 5 8
18 18 19 20 22 22 23 25 28 28 26 27 17 6 4 5 9 7 2 4 4 8 12 11 11 1 5 9 8 12 12 9 11 12 10 4 8 10 13 17 10 10 6 10 6 9 5
18 18 18 19 21 22 24 27 29 29 28 21 11 6 14 10 12 10 2 5 5 10 8 10 7 7 8 12 8 9 11 14 13 12 12 10 10 15 16 10 9 10 8 4 4 5 7
19 19 19 19 21 23 25 26 29 30 27 11 1 3 10 14 13 2 3 6 11 13 6 4 9 11 13 14 17 11 9 7 9 14 12 11 8 16 8 4 11 3 4 5 2 3 5
20 20 20 21 21 23 24 27 28 30 25 11 6 3 15 15 3 4 6 6 6 6 7 7 4 8 10 14 13 12 10 5 8 3 6 8 5 6 12 11 9 8 11 10 5 9 4
21 21 21 22 23 24 25 26 26 26 26 10 3 4 14 14 3 6 9 15 14 3 5 8 6 7 8 9 7 9 14 16 16 4 3 5 4 5 8 8 9 6 7 9 5 4 10
23 22 23 23 23 24 25 25 24 23 22 6 3 3 2 4 6 11 11 11 12 12 6 3 7 10 11 8 10 7 12 14 10 9 12 6 2 4 5 7 7 11 9 7 8 4 6
25 24 22 23 23 24 25 24 24 22 20 1 3 3 4 2 5 8 10 9 12 12 10 8 4 7 8 8 10 9 10 15 7 8 7 6 4 8 11 11 15 15 15 10 11 11 10
23 25 25 23 23 23 25 25 24 23 17 2 3 4 5 9 10 12 10 9 11 13 9 11 7 11 10 6 8 9 12 3 2 6 4 5 3 8 7 12 14 20 16 16 14 8 12
22 23 25 25 24 24 24 24 24 25 13 7 11 8 3 6 8 10 9 16 11 10 8 13 12 12 12 11 9 8 7 8 6 2 2 3 3 2 7 8 16 10 10 11 10 12 6
21 23 24 26 25 24 23 22 21 22 22 5 6 9 3 5 7 10 18 18 16 12 8 11 13 11 11 18 15 7 8 7 5 4 4 7 5 4 6 5 5 8 10 9 11 15 15
21 21 22 24 25 26 23 21 19 19 18 12 9 6 3 5 9 14 15 15 15 13 13 13 12 11 10 6 7 6 6 7 9 10 11 5 5 1 1 4 9 15 14 5 5 16 18
20 21 22 22 23 23 23 22 20 20 21 17 9 6 4 5 4 12 14 12 9 7 9 11 13 7 7 2 2 5 6 10 3 8 8 6 6 3 0 1 5 8 12 4 6 8 10
19 20 21 21 22 22 22 21 20 18 18 18 8 10 6 4 8 7 5 9 6 8 6 10 7 8 11 4 4 5 9 2 4 6 4 1 2 5 6 4 7 8 18 13 1 8 26
19 20 21 21 21 22 23 23 20 17 15 16 12 8 5 3 13 9 5 8 9 6 8 5 6 4 5 2 3 5 5 2 2 1 5 2 1 3 3 7 14 13 9 3 13 24 20
20 21 22 22 22 22 23 20 18 15 13 10 7 15 18 5 8 31 40 39 30 29 9 4 6 11 4 4 4 4 1 3 4 3 1 3 6 5 7 6 5 4 8 4 10 10 11
Wind_Direction
354 354 355 357 358 354 348 351 349 345 343 340 339 337 336 335 336 335 331 329 325 324 326 327 328 333 350 234 251 250 180 201 219 213 216 243 272 284 287 307 180 174 218 233 226 178 246
350 357 353 353 353 349 348 346 346 344 342 340 340 337 335 336 334 330 325 322 321 323 322 321 324 332 306 261 208 175 168 191 217 206 220 240 261 285 292 302 297 244 191 291 276 280 258
354 352 345 352 354 346 346 347 347 346 344 341 341 338 335 332 329 326 320 319 316 315 314 315 315 344 269 243 271 250 177 225 243 226 228 238 251 267 289 314 312 251 281 233 180 273 10
353 348 350 353 345 344 347 350 349 346 341 340 339 334 332 330 327 323 319 317 313 312 312 306 305 79 252 262 290 258 272 265 252 243 242 256 270 287 275 297 299 282 257 256 228 248 263
353 352 351 348 348 352 348 347 344 343 341 338 336 332 329 327 324 320 314 311 301 301 301 294 311 207 263 275 218 234 259 238 262 257 262 259 286 312 319 295 306 304 249 279 121 221 252
352 352 349 349 352 349 346 342 339 339 336 336 333 330 328 326 324 321 314 307 289 293 297 249 259 288 259 240 225 227 225 245 258 260 239 240 237 257 279 269 253 268 268 59 235 207 239
350 351 350 348 346 344 338 339 333 333 333 332 329 328 328 326 325 325 325 349 247 180 249 216 201 238 284 228 267 187 204 218 244 279 234 248 207 234 252 255 259 272 255 156 223 243 238
350 350 348 344 341 336 335 334 335 335 334 331 330 330 329 324 320 316 307 269 -0 326 291 237 245 258 265 278 255 253 254 196 206 243 262 256 233 233 255 267 274 284 287 276 222 236 197
351 350 347 342 342 341 340 338 335 336 334 331 332 334 333 325 319 299 238 255 334 315 271 266 226 229 241 209 240 264 190 237 217 225 250 218 236 233 235 252 267 278 276 285 303 261 197
350 347 343 342 344 343 342 335 337 335 332 332 336 338 335 330 316 325 254 261 316 316 295 263 193 210 231 234 258 231 222 184 223 229 229 252 252 253 257 241 232 274 281 285 262 304 209
353 351 350 347 345 341 337 343 338 335 335 339 338 335 332 330 305 301 343 341 328 295 316 138 142 194 171 186 264 196 228 195 223 224 239 248 250 265 273 268 244 233 274 287 293 258 9
353 351 350 348 341 342 346 339 341 340 339 337 334 331 329 22 297 292 319 318 297 275 250 143 133 178 204 186 258 263 192 210 194 249 258 248 257 247 255 271 273 263 310 313 305 214 314
354 351 350 346 346 346 344 344 343 343 340 335 326 322 299 251 219 350 329 295 274 241 343 157 167 170 197 198 234 253 192 221 189 211 254 273 267 270 256 285 269 247 268 314 327 324 236
352 347 350 353 349 347 347 346 345 343 340 332 324 305 276 249 233 311 291 302 251 268 297 312 155 167 179 206 207 223 215 199 215 239 264 217 278 242 248 227 221 235 191 172 240 244 257
357 354 355 354 350 350 350 349 348 345 343 332 329 324 247 238 220 240 278 241 252 357 16 344 340 214 273 214 215 191 216 205 212 200 226 286 261 266 215 228 178 241 275 241 263 276 301
357 354 355 353 353 350 349 352 350 346 346 332 332 297 239 199 144 213 236 269 301 278 13 -0 332 319 333 314 223 215 196 212 222 209 194 233 265 282 286 222 220 162 217 294 316 248 281
359 358 359 359 355 353 352 353 354 350 351 348 324 252 117 157 166 232 241 261 289 312 74 3 326 322 321 318 329 317 211 245 249 227 213 208 211 273 305 269 199 206 230 267 195 180 213
2 -0 358 357 358 355 355 357 359 360 4 10 298 276 158 165 192 215 230 246 260 335 343 297 224 280 294 309 318 323 329 293 319 337 234 212 205 234 246 274 265 215 193 193 154 277 233
2 2 1 358 358 355 357 360 1 8 8 346 280 280 166 194 259 254 278 302 297 264 294 295 284 266 260 284 307 315 309 311 312 350 58 5 351 342 311 326 323 256 233 209 212 217 249
9 9 2 -0 357 358 359 359 360 1 357 347 279 308 157 193 252 280 292 286 300 308 212 198 295 315 315 300 297 289 304 303 49 9 337 93 200 228 252 233 242 292 275 220 205 224 248
9 8 6 359 358 359 360 359 359 357 346 327 237 308 8 314 294 268 277 307 330 322 308 305 235 253 241 290 307 302 286 288 73 359 6 29 342 315 279 283 291 287 281 265 220 225 228
5 6 6 359 0 2 4 5 4 1 349 202 322 354 354 299 300 304 283 268 260 259 259 283 296 285 260 221 244 259 297 35 165 353 33 358 322 10 317 313 309 304 292 291 282 247 231
4 4 5 6 -0 5 7 11 12 11 22 352 8 349 283 291 301 299 299 329 313 349 331 323 324 332 326 306 356 327 329 315 158 97 81 52 71 87 274 317 340 316 274 283 285 279 244
1 2 3 5 5 6 11 13 16 16 21 346 313 322 288 291 312 301 321 313 326 329 303 308 317 316 294 318 327 324 330 321 146 188 175 154 168 151 263 351 256 252 311 301 305 303 306
358 359 1 3 5 9 10 12 11 9 6 354 312 317 319 298 316 301 332 326 333 325 317 298 272 246 260 287 313 328 314 296 271 202 202 131 124 170 216 256 289 308 290 336 11 302 307
355 356 356 357 360 0 4 4 3 4 359 358 328 356 326 307 258 352 311 296 282 316 310 317 318 304 219 196 255 266 267 265 282 353 122 98 62 121 247 209 284 300 309 -0 329 284 326
355 353 351 350 351 352 353 354 352 351 352 347 297 347 297 287 271 319 308 306 309 316 293 311 328 332 315 171 215 244 256 202 167 175 345 197 203 207 247 253 256 11 333 325 84 310 331
353 351 349 347 345 345 344 342 340 340 343 350 303 326 288 269 288 260 310 314 311 286 271 293 332 284 305 277 229 234 254 70 79 70 206 198 156 209 206 217 250 24 7 39 311 307 306
349 347 347 345 343 341 339 337 335 334 336 348 290 322 329 262 260 295 284 274 255 251 271 265 285 307 275 17 352 348 17 162 151 230 110 245 213 182 185 232 290 269 218 260 284 272 287